Location: Kawakawa
(35.3830°S, 174.0670°E)
Time: 21:10:44
(UTC+13:00)

Explorer 7 - Pass Details

Date: 14 December 2019
Orbit: 485 x 679 km, 50.3° (Epoch: 29 January)

Event Time Altitude Azimuth Distance (km) Brightness Sun altitude
Rises 09:56:07 0° 225° (SW) 2,588 9.9 44.8°
Reaches altitude 10° 09:58:22 10° 218° (SW) 1,714 9.2 45.3°
Maximum altitude 10:02:04 42° 145° (SE) 745 8.4 46.0°
Drops below altitude 10° 10:05:52 10° 73° (ENE) 1,771 10.4 46.8°
Sets 10:08:14 0° 66° (ENE) 2,687 11.0 47.3°
